Time,TemperatureF,DewpointF,PressureIn,WindDirection,WindDirectionDegrees,WindSpeedMPH,WindSpeedGustMPH,Humidity,HourlyPrecipIn,Conditions,Clouds,dailyrainin,SoftwareType,DateUTC
2013-01-25 00:02:00,47.0,-99.9,30.14,South,181,6.0,15.0,-999,-99.99,,,-99.99,,2013-01-25 08:02:00,
2013-01-25 00:12:00,47.0,-99.9,30.14,SSE,167,6.0,9.0,-999,-99.99,,,-99.99,,2013-01-25 08:12:00,
2013-01-25 00:22:00,47.0,-99.9,30.13,South,177,5.0,7.0,-999,-99.99,,,-99.99,,2013-01-25 08:22:00,
2013-01-25 00:32:00,47.0,-99.9,30.13,South,170,7.0,14.0,-999,-99.99,,,-99.99,,2013-01-25 08:32:00,
2013-01-25 00:42:00,47.0,-99.9,30.13,South,182,9.0,13.0,-999,-99.99,,,-99.99,,2013-01-25 08:42:00,
2013-01-25 00:52:00,47.0,-99.9,30.13,SSE,168,10.0,13.0,-999,-99.99,,,-99.99,,2013-01-25 08:52:00,
2013-01-25 01:02:00,47.0,-99.9,30.13,SSW,198,6.0,15.0,-999,-99.99,,,-99.99,,2013-01-25 09:02:00,
2013-01-25 01:11:00,47.0,-99.9,30.13,SSW,193,7.0,13.0,-999,-99.99,,,-99.99,,2013-01-25 09:11:00,
2013-01-25 01:21:00,47.0,-99.9,30.13,SSW,207,7.0,11.0,-999,-99.99,,,-99.99,,2013-01-25 09:21:00,
2013-01-25 01:32:00,47.0,-99.9,30.12,SSE,168,6.0,8.0,-999,-99.99,,,-99.99,,2013-01-25 09:32:00,
2013-01-25 01:42:00,47.0,-99.9,30.12,SSE,159,7.0,14.0,-999,-99.99,,,-99.99,,2013-01-25 09:42:00,
2013-01-25 01:52:00,47.0,-99.9,30.12,South,177,8.0,16.0,-999,-99.99,,,-99.99,,2013-01-25 09:52:00,
2013-01-25 02:02:00,47.0,-99.9,30.12,SSW,195,11.0,15.0,-999,-99.99,,,-99.99,,2013-01-25 10:02:00,
2013-01-25 02:12:00,47.0,-99.9,30.12,SSW,196,8.0,12.0,-999,-99.99,,,-99.99,,2013-01-25 10:12:00,
2013-01-25 02:22:00,47.0,-99.9,30.12,South,183,9.0,14.0,-999,-99.99,,,-99.99,,2013-01-25 10:22:00,
2013-01-25 02:32:00,47.0,-99.9,30.12,SSW,198,7.0,15.0,-999,-99.99,,,-99.99,,2013-01-25 10:32:00,
2013-01-25 02:42:00,47.0,-99.9,30.12,South,183,11.0,17.0,-999,-99.99,,,-99.99,,2013-01-25 10:42:00,
2013-01-25 02:52:00,47.0,-99.9,30.12,South,191,8.0,13.0,-999,-99.99,,,-99.99,,2013-01-25 10:52:00,
2013-01-25 03:03:00,47.0,-99.9,30.11,South,174,8.0,13.0,-999,-99.99,,,-99.99,,2013-01-25 11:03:00,
2013-01-25 03:11:00,47.0,-99.9,30.11,South,180,10.0,15.0,-999,-99.99,,,-99.99,,2013-01-25 11:11:00,
2013-01-25 03:22:00,47.0,-99.9,30.11,SSW,194,9.0,13.0,-999,-99.99,,,-99.99,,2013-01-25 11:22:00,
2013-01-25 03:33:00,47.0,-99.9,30.11,South,179,10.0,15.0,-999,-99.99,,,-99.99,,2013-01-25 11:33:00,
2013-01-25 03:42:00,47.0,-99.9,30.11,SSW,193,11.0,17.0,-999,-99.99,,,-99.99,,2013-01-25 11:42:00,
2013-01-25 03:52:00,47.0,-99.9,30.11,South,186,7.0,14.0,-999,-99.99,,,-99.99,,2013-01-25 11:52:00,
2013-01-25 04:03:00,47.0,-99.9,30.11,SSW,193,7.0,10.0,-999,-99.99,,,-99.99,,2013-01-25 12:03:00,
2013-01-25 04:12:00,47.0,-99.9,30.10,South,190,8.0,12.0,-999,-99.99,,,-99.99,,2013-01-25 12:12:00,
2013-01-25 04:22:00,47.0,-99.9,30.10,South,188,5.0,11.0,-999,-99.99,,,-99.99,,2013-01-25 12:22:00,
2013-01-25 04:33:00,47.0,-99.9,30.09,South,189,7.0,14.0,-999,-99.99,,,-99.99,,2013-01-25 12:33:00,
2013-01-25 04:42:00,47.0,-99.9,30.09,South,189,7.0,13.0,-999,-99.99,,,-99.99,,2013-01-25 12:42:00,
2013-01-25 04:53:00,47.0,-99.9,30.09,South,187,8.0,13.0,-999,-99.99,,,-99.99,,2013-01-25 12:53:00,
2013-01-25 05:03:00,47.0,-99.9,30.09,South,176,9.0,15.0,-999,-99.99,,,-99.99,,2013-01-25 13:03:00,
2013-01-25 05:12:00,47.0,-99.9,30.09,South,186,11.0,14.0,-999,-99.99,,,-99.99,,2013-01-25 13:12:00,
2013-01-25 05:22:00,47.0,-99.9,30.09,South,191,12.0,16.0,-999,-99.99,,,-99.99,,2013-01-25 13:22:00,
2013-01-25 05:33:00,48.0,-99.9,30.09,South,178,6.0,15.0,-999,-99.99,,,-99.99,,2013-01-25 13:33:00,
2013-01-25 05:43:00,48.0,-99.9,30.09,South,185,11.0,16.0,-999,-99.99,,,-99.99,,2013-01-25 13:43:00,
2013-01-25 05:53:00,48.0,-99.9,30.09,South,187,8.0,17.0,-999,-99.99,,,-99.99,,2013-01-25 13:53:00,
2013-01-25 06:03:00,48.0,-99.9,30.08,South,185,11.0,14.0,-999,-99.99,,,-99.99,,2013-01-25 14:03:00,
2013-01-25 06:13:00,48.0,-99.9,30.08,South,189,10.0,15.0,-999,-99.99,,,-99.99,,2013-01-25 14:13:00,
2013-01-25 06:23:00,48.0,-99.9,30.08,SSW,193,8.0,12.0,-999,-99.99,,,-99.99,,2013-01-25 14:23:00,
2013-01-25 06:33:00,48.0,-99.9,30.08,SSW,200,6.0,14.0,-999,-99.99,,,-99.99,,2013-01-25 14:33:00,
2013-01-25 06:42:00,48.0,-99.9,30.08,South,187,7.0,13.0,-999,-99.99,,,-99.99,,2013-01-25 14:42:00,
2013-01-25 06:53:00,48.0,-99.9,30.08,South,184,8.0,12.0,-999,-99.99,,,-99.99,,2013-01-25 14:53:00,
2013-01-25 07:03:00,48.0,-99.9,30.07,South,188,8.0,12.0,-999,-99.99,,,-99.99,,2013-01-25 15:03:00,
2013-01-25 07:13:00,48.0,-99.9,30.07,South,180,8.0,13.0,-999,-99.99,,,-99.99,,2013-01-25 15:13:00,
2013-01-25 07:23:00,48.0,-99.9,30.07,South,185,9.0,16.0,-999,-99.99,,,-99.99,,2013-01-25 15:23:00,
2013-01-25 07:33:00,48.0,-99.9,30.07,SSW,197,9.0,16.0,-999,-99.99,,,-99.99,,2013-01-25 15:33:00,
2013-01-25 07:43:00,48.0,-99.9,30.07,SSW,192,10.0,16.0,-999,-99.99,,,-99.99,,2013-01-25 15:43:00,
2013-01-25 07:53:00,48.0,-99.9,30.07,SSW,198,8.0,15.0,-999,-99.99,,,-99.99,,2013-01-25 15:53:00,
2013-01-25 08:03:00,49.0,-99.9,30.07,SSW,195,10.0,15.0,-999,-99.99,,,-99.99,,2013-01-25 16:03:00,
2013-01-25 08:12:00,49.0,-99.9,30.07,SSW,194,11.0,14.0,-999,-99.99,,,-99.99,,2013-01-25 16:12:00,
2013-01-25 08:23:00,49.0,-99.9,30.07,SSW,193,9.0,17.0,-999,-99.99,,,-99.99,,2013-01-25 16:23:00,
2013-01-25 08:33:00,49.0,-99.9,30.07,SSW,209,9.0,14.0,-999,-99.99,,,-99.99,,2013-01-25 16:33:00,
2013-01-25 08:43:00,49.0,-99.9,30.07,SSW,204,10.0,14.0,-999,-99.99,,,-99.99,,2013-01-25 16:43:00,
2013-01-25 08:53:00,49.0,-99.9,30.07,SSW,197,11.0,17.0,-999,-99.99,,,-99.99,,2013-01-25 16:53:00,
2013-01-25 09:03:00,49.0,-99.9,30.07,SSW,193,9.0,13.0,-999,-99.99,,,-99.99,,2013-01-25 17:03:00,
2013-01-25 09:12:00,49.0,-99.9,30.07,SSW,195,7.0,12.0,-999,-99.99,,,-99.99,,2013-01-25 17:12:00,
2013-01-25 09:22:00,49.0,-99.9,30.07,SSW,203,11.0,15.0,-999,-99.99,,,-99.99,,2013-01-25 17:22:00,
2013-01-25 09:33:00,49.0,-99.9,30.07,SSW,200,9.0,16.0,-999,-99.99,,,-99.99,,2013-01-25 17:33:00,
2013-01-25 09:43:00,49.0,-99.9,30.08,SSW,210,9.0,15.0,-999,-99.99,,,-99.99,,2013-01-25 17:43:00,
2013-01-25 09:53:00,49.0,-99.9,30.08,SSW,199,8.0,13.0,-999,-99.99,,,-99.99,,2013-01-25 17:53:00,
2013-01-25 10:04:00,49.0,-99.9,30.08,SSW,204,9.0,13.0,-999,-99.99,,,-99.99,,2013-01-25 18:04:00,
2013-01-25 10:12:00,49.0,-99.9,30.08,SSW,209,10.0,16.0,-999,-99.99,,,-99.99,,2013-01-25 18:12:00,
2013-01-25 10:24:00,49.0,-99.9,30.08,SW,215,8.0,14.0,-999,-99.99,,,-99.99,,2013-01-25 18:24:00,
2013-01-25 10:33:00,49.0,-99.9,30.08,SSW,209,8.0,15.0,-999,-99.99,,,-99.99,,2013-01-25 18:33:00,
2013-01-25 10:43:00,49.0,-99.9,30.08,SSW,207,11.0,19.0,-999,-99.99,,,-99.99,,2013-01-25 18:43:00,
2013-01-25 10:53:00,49.0,-99.9,30.08,SSW,201,12.0,19.0,-999,-99.99,,,-99.99,,2013-01-25 18:53:00,
2013-01-25 11:03:00,49.0,-99.9,30.08,SSW,204,10.0,16.0,-999,-99.99,,,-99.99,,2013-01-25 19:03:00,
2013-01-25 11:12:00,49.0,-99.9,30.08,SSW,204,13.0,19.0,-999,-99.99,,,-99.99,,2013-01-25 19:12:00,
2013-01-25 11:23:00,49.0,-99.9,30.08,SSW,199,11.0,18.0,-999,-99.99,,,-99.99,,2013-01-25 19:23:00,
2013-01-25 11:33:00,49.0,-99.9,30.07,SSW,207,13.0,19.0,-999,-99.99,,,-99.99,,2013-01-25 19:33:00,
2013-01-25 11:43:00,49.0,-99.9,30.07,SSW,204,13.0,20.0,-999,-99.99,,,-99.99,,2013-01-25 19:43:00,
2013-01-25 11:53:00,49.0,-99.9,30.07,SSW,211,9.0,15.0,-999,-99.99,,,-99.99,,2013-01-25 19:53:00,
2013-01-25 12:03:00,49.0,-99.9,30.07,WSW,254,4.0,6.0,-999,-99.99,,,-99.99,,2013-01-25 20:03:00,
2013-01-25 12:13:00,49.0,-99.9,30.07,WSW,247,4.0,8.0,-999,-99.99,,,-99.99,,2013-01-25 20:13:00,
2013-01-25 12:23:00,49.0,-99.9,30.06,West,263,4.0,5.0,-999,-99.99,,,-99.99,,2013-01-25 20:23:00,
2013-01-25 12:33:00,48.0,-99.9,30.06,NW,312,4.0,8.0,-999,-99.99,,,-99.99,,2013-01-25 20:33:00,
2013-01-25 12:43:00,48.0,-99.9,30.06,WNW,293,3.0,6.0,-999,-99.99,,,-99.99,,2013-01-25 20:43:00,
2013-01-25 12:53:00,48.0,-99.9,30.05,WNW,298,3.0,4.0,-999,-99.99,,,-99.99,,2013-01-25 20:53:00,
2013-01-25 13:02:00,48.0,-99.9,30.05,NW,316,3.0,4.0,-999,-99.99,,,-99.99,,2013-01-25 21:02:00,
2013-01-25 13:12:00,49.0,-99.9,30.04,NW,310,2.0,4.0,-999,-99.99,,,-99.99,,2013-01-25 21:12:00,
2013-01-25 13:23:00,48.0,-99.9,30.04,WNW,298,3.0,4.0,-999,-99.99,,,-99.99,,2013-01-25 21:23:00,
2013-01-25 13:33:00,49.0,-99.9,30.04,WNW,293,2.0,3.0,-999,-99.99,,,-99.99,,2013-01-25 21:33:00,
2013-01-25 13:43:00,48.0,-99.9,30.04,WNW,284,3.0,5.0,-999,-99.99,,,-99.99,,2013-01-25 21:43:00,
2013-01-25 13:52:00,49.0,-99.9,30.04,WNW,282,3.0,4.0,-999,-99.99,,,-99.99,,2013-01-25 21:52:00,
2013-01-25 14:03:00,48.0,-99.9,30.03,WNW,297,3.0,5.0,-999,-99.99,,,-99.99,,2013-01-25 22:03:00,
2013-01-25 14:12:00,48.0,-99.9,30.03,West,268,3.0,5.0,-999,-99.99,,,-99.99,,2013-01-25 22:12:00,
2013-01-25 14:23:00,48.0,-99.9,30.03,WSW,257,4.0,6.0,-999,-99.99,,,-99.99,,2013-01-25 22:23:00,
2013-01-25 14:33:00,48.0,-99.9,30.03,West,281,6.0,8.0,-999,-99.99,,,-99.99,,2013-01-25 22:33:00,
2013-01-25 14:42:00,47.0,-99.9,30.02,West,267,5.0,8.0,-999,-99.99,,,-99.99,,2013-01-25 22:42:00,
2013-01-25 14:53:00,47.0,-99.9,30.02,West,271,6.0,9.0,-999,-99.99,,,-99.99,,2013-01-25 22:53:00,
2013-01-25 15:02:00,47.0,-99.9,30.02,West,272,8.0,10.0,-999,-99.99,,,-99.99,,2013-01-25 23:02:00,
2013-01-25 15:12:00,47.0,-99.9,30.02,West,273,7.0,9.0,-999,-99.99,,,-99.99,,2013-01-25 23:12:00,
2013-01-25 15:22:00,46.0,-99.9,30.02,West,272,6.0,9.0,-999,-99.99,,,-99.99,,2013-01-25 23:22:00,
2013-01-25 15:32:00,46.0,-99.9,30.03,West,268,6.0,9.0,-999,-99.99,,,-99.99,,2013-01-25 23:32:00,
2013-01-25 15:42:00,46.0,-99.9,30.03,West,278,6.0,9.0,-999,-99.99,,,-99.99,,2013-01-25 23:42:00,
2013-01-25 15:53:00,46.0,-99.9,30.03,West,276,7.0,9.0,-999,-99.99,,,-99.99,,2013-01-25 23:53:00,
2013-01-25 16:02:00,46.0,-99.9,30.03,West,275,7.0,9.0,-999,-99.99,,,-99.99,,2013-01-26 00:02:00,
2013-01-25 16:12:00,46.0,-99.9,30.03,West,271,9.0,10.0,-999,-99.99,,,-99.99,,2013-01-26 00:12:00,
2013-01-25 16:22:00,46.0,-99.9,30.03,West,272,6.0,9.0,-999,-99.99,,,-99.99,,2013-01-26 00:22:00,
2013-01-25 16:33:00,46.0,-99.9,30.03,West,270,7.0,11.0,-999,-99.99,,,-99.99,,2013-01-26 00:33:00,
2013-01-25 16:42:00,46.0,-99.9,30.03,West,271,8.0,11.0,-999,-99.99,,,-99.99,,2013-01-26 00:42:00,
2013-01-25 16:53:00,46.0,-99.9,30.03,West,279,7.0,11.0,-999,-99.99,,,-99.99,,2013-01-26 00:53:00,
2013-01-25 17:02:00,46.0,-99.9,30.02,WNW,291,7.0,11.0,-999,-99.99,,,-99.99,,2013-01-26 01:02:00,
2013-01-25 17:12:00,46.0,-99.9,30.02,West,277,6.0,9.0,-999,-99.99,,,-99.99,,2013-01-26 01:12:00,
2013-01-25 17:22:00,46.0,-99.9,30.02,West,265,4.0,6.0,-999,-99.99,,,-99.99,,2013-01-26 01:22:00,
2013-01-25 17:32:00,45.0,-99.9,30.02,West,259,2.0,4.0,-999,-99.99,,,-99.99,,2013-01-26 01:32:00,
2013-01-25 17:42:00,45.0,-99.9,30.01,SSW,209,2.0,4.0,-999,-99.99,,,-99.99,,2013-01-26 01:42:00,
2013-01-25 17:52:00,45.0,-99.9,30.02,West,270,3.0,3.0,-999,-99.99,,,-99.99,,2013-01-26 01:52:00,
2013-01-25 18:02:00,45.0,-99.9,30.02,West,273,6.0,7.0,-999,-99.99,,,-99.99,,2013-01-26 02:02:00,
2013-01-25 18:12:00,45.0,-99.9,30.02,West,277,4.0,7.0,-999,-99.99,,,-99.99,,2013-01-26 02:12:00,
2013-01-25 18:22:00,45.0,-99.9,30.01,West,263,6.0,8.0,-999,-99.99,,,-99.99,,2013-01-26 02:22:00,
2013-01-25 18:32:00,45.0,-99.9,30.01,West,269,4.0,7.0,-999,-99.99,,,-99.99,,2013-01-26 02:32:00,
2013-01-25 18:42:00,45.0,-99.9,30.01,WSW,237,5.0,9.0,-999,-99.99,,,-99.99,,2013-01-26 02:42:00,
2013-01-25 18:52:00,45.0,-99.9,30.01,SW,231,4.0,6.0,-999,-99.99,,,-99.99,,2013-01-26 02:52:00,
2013-01-25 19:02:00,45.0,-99.9,30.01,SW,231,6.0,8.0,-999,-99.99,,,-99.99,,2013-01-26 03:02:00,
2013-01-25 19:12:00,45.0,-99.9,30.01,SW,221,4.0,6.0,-999,-99.99,,,-99.99,,2013-01-26 03:12:00,
2013-01-25 19:22:00,44.0,-99.9,30.01,South,178,4.0,5.0,-999,-99.99,,,-99.99,,2013-01-26 03:22:00,
2013-01-25 19:32:00,44.0,-99.9,30.01,SSE,165,4.0,6.0,-999,-99.99,,,-99.99,,2013-01-26 03:32:00,
2013-01-25 19:43:00,44.0,-99.9,30.01,SSE,156,3.0,6.0,-999,-99.99,,,-99.99,,2013-01-26 03:43:00,
2013-01-25 19:52:00,44.0,-99.9,30.01,SSE,151,5.0,6.0,-999,-99.99,,,-99.99,,2013-01-26 03:52:00,
2013-01-25 20:02:00,44.0,-99.9,30.00,SE,140,4.0,5.0,-999,-99.99,,,-99.99,,2013-01-26 04:02:00,
2013-01-25 20:12:00,44.0,-99.9,30.00,SE,139,5.0,6.0,-999,-99.99,,,-99.99,,2013-01-26 04:12:00,
2013-01-25 20:21:00,44.0,-99.9,30.00,SE,141,5.0,6.0,-999,-99.99,,,-99.99,,2013-01-26 04:21:00,
2013-01-25 20:32:00,44.0,-99.9,30.00,SE,132,6.0,8.0,-999,-99.99,,,-99.99,,2013-01-26 04:32:00,
2013-01-25 20:43:00,44.0,-99.9,29.99,ESE,123,9.0,10.0,-999,-99.99,,,-99.99,,2013-01-26 04:43:00,
2013-01-25 20:52:00,44.0,-99.9,29.99,ESE,121,9.0,11.0,-999,-99.99,,,-99.99,,2013-01-26 04:52:00,
2013-01-25 21:03:00,44.0,-99.9,29.99,SE,124,8.0,9.0,-999,-99.99,,,-99.99,,2013-01-26 05:03:00,
2013-01-25 21:12:00,44.0,-99.9,29.99,SE,127,7.0,10.0,-999,-99.99,,,-99.99,,2013-01-26 05:12:00,
2013-01-25 21:23:00,44.0,-99.9,29.99,SE,131,6.0,9.0,-999,-99.99,,,-99.99,,2013-01-26 05:23:00,
2013-01-25 21:33:00,44.0,-99.9,29.99,ESE,113,6.0,8.0,-999,-99.99,,,-99.99,,2013-01-26 05:33:00,
2013-01-25 21:42:00,44.0,-99.9,29.99,ESE,107,6.0,8.0,-999,-99.99,,,-99.99,,2013-01-26 05:42:00,
2013-01-25 21:53:00,44.0,-99.9,29.99,ESE,112,7.0,9.0,-999,-99.99,,,-99.99,,2013-01-26 05:53:00,
2013-01-25 22:03:00,43.0,-99.9,29.99,East,101,8.0,9.0,-999,-99.99,,,-99.99,,2013-01-26 06:03:00,
2013-01-25 22:12:00,43.0,-99.9,29.99,ESE,107,7.0,8.0,-999,-99.99,,,-99.99,,2013-01-26 06:12:00,
2013-01-25 22:21:00,43.0,-99.9,29.99,ESE,107,9.0,10.0,-999,-99.99,,,-99.99,,2013-01-26 06:21:00,
2013-01-25 22:32:00,44.0,-99.9,29.99,ESE,111,8.0,9.0,-999,-99.99,,,-99.99,,2013-01-26 06:32:00,
2013-01-25 22:42:00,44.0,-99.9,29.99,ESE,114,8.0,9.0,-999,-99.99,,,-99.99,,2013-01-26 06:42:00,
2013-01-25 22:52:00,44.0,-99.9,29.98,ESE,116,9.0,10.0,-999,-99.99,,,-99.99,,2013-01-26 06:52:00,
2013-01-25 23:02:00,44.0,-99.9,29.98,SE,125,7.0,9.0,-999,-99.99,,,-99.99,,2013-01-26 07:02:00,
2013-01-25 23:12:00,44.0,-99.9,29.98,ESE,122,6.0,8.0,-999,-99.99,,,-99.99,,2013-01-26 07:12:00,
2013-01-25 23:22:00,44.0,-99.9,29.99,SE,135,7.0,8.0,-999,-99.99,,,-99.99,,2013-01-26 07:22:00,
2013-01-25 23:33:00,44.0,-99.9,29.98,SE,137,6.0,10.0,-999,-99.99,,,-99.99,,2013-01-26 07:33:00,
2013-01-25 23:42:00,45.0,-99.9,29.98,SE,145,8.0,9.0,-999,-99.99,,,-99.99,,2013-01-26 07:42:00,
2013-01-25 23:52:00,45.0,-99.9,29.98,SSE,149,9.0,12.0,-999,-99.99,,,-99.99,,2013-01-26 07:52:00,